Regional Weather Roundup
Issued by NWS Cleveland, OH

Home | Current Version | Previous Version | Text Only | Print | Product List | Glossary On
Versions: 1 2 3 4 5 6 7 8 9 10 11 12 13 14 15 16 17 18 19 20 21 22 23 24 25 26 27 28 29 30 31 32 33 34 35 36 37 38 39 40 41 42 43 44 45 46 47 48 49 50
000
ASUS41 KCLE 251110
RWRCLE
OHIO REGIONAL WEATHER ROUNDUP
NATIONAL WEATHER SERVICE CLEVELAND, OH
700 AM EDT SUN SEP 25 2016

NOTE: "FAIR" INDICATES FEW OR NO CLOUDS BELOW 12,000 FEET WITH NO
SIGNIFICANT WEATHER AND/OR OBSTRUCTIONS TO VISIBILITY.

OHZ001>008-015>018-024>027-034-035-043-044-251200-
   NORTHWEST OHIO

CITY           SKY/WX    TMP DP  RH WIND       PRES   REMARKS
DEFIANCE       CLEAR     53  49  86 CALM      30.19S
FINDLAY        CLEAR     54  46  74 E6        30.17S
TOLEDO EXPRESS CLEAR     50  50 100 CALM      30.19S
TOLEDO EXEC    CLEAR     53  47  79 E3        30.20S
LIMA           CLEAR     51  50  96 E5        30.17S
$$

OHZ009>014-019>023-028>033-038-089-251200-
   NORTHEAST OHIO

CITY           SKY/WX    TMP DP  RH WIND       PRES   REMARKS
CLE-HOPKINS    CLEAR     54  42  64 E6        30.21F
CLE-LAKEFRONT  CLEAR     57  43  59 E8        30.19F
CUY CO. ARPT   CLEAR     52  46  82 SE7       30.21
LORAIN-ELYRIA  CLEAR     48  42  80 SE5       30.20F
ASHTABULA      CLEAR     43  42  97 CALM      30.23S
AKRON-CANTON   CLEAR     49  44  83 E9        30.19S
WOOSTER        CLEAR     47  45  93 E5        30.20S
MANSFIELD      CLEAR     50  47  89 SE6       30.19S
YOUNGSTOWN     CLEAR     47  43  86 E7        30.21S
$$

OHZ042-051>053-060>062-070>072-077>081-251200-
  SOUTHWEST OHIO

CITY           SKY/WX    TMP DP  RH WIND       PRES   REMARKS
CINC-COVINGTON CLEAR     65  60  84 NE7       30.14R
CINC-LUNKEN    CLEAR     60  60 100 N3        30.15R
HAMILTON       CLEAR     58  56  93 CALM      30.16R
DAYTON         PTCLDY    57  53  86 E5        30.17S
WRIGHT-PAT AFB CLEAR     58  54  86 NE6       30.15S
DAYTON GENERAL CLEAR     59  52  77 E7        30.14S
WILMINGTON     CLEAR     56  54  93 E3        30.15S
$$

OHZ036-037-039>041-045>050-054>059-063>069-073>076-082>088-251200-
  CENTRAL AND SOUTHEAST OHIO

CITY           SKY/WX    TMP DP  RH WIND       PRES   REMARKS
COLUMBUS       CLEAR     56  51  84 NE3       30.16S
OSU AIRPORT    CLEAR     53  51  93 CALM      30.17S
BOLTON FIELD   CLEAR     55  52  90 CALM      30.17S
RICKENBACK AFB CLEAR     53  51  91 NE7       30.16S
NEWARK         CLEAR     53  50  89 CALM      30.17S
MARION         CLEAR     48  46  93 NE3       30.18S
LANCASTER      CLEAR     52  50  93 CALM      30.17S
ZANESVILLE     CLEAR     51  49  92 N3        30.17S
NEW PHILLY     CLEAR     48  46  93 CALM      30.20S
$$



USA.gov is the U.S. government's official web portal to all federal, state and local government web resources and services.